Regional Weather Roundup
Issued by NWS Albany, NY

Home | Current Version | Previous Version | Text Only | Print | Product List | Glossary On
Versions: 1 2 3 4 5 6 7 8 9 10 11 12 13 14 15 16 17 18 19 20 21 22 23 24 25 26 27
000
ASUS41 KALY 020110
RWRALY

NEW YORK STATE HOURLY WEATHER ROUNDUP
NATIONAL WEATHER SERVICE ALBANY NY
900 PM EDT SUN MAY 01 2016

NOTE: "FAIR" INDICATES FEW OR NO CLOUDS BELOW 12,000 FEET WITH NO
SIGNIFICANT WEATHER AND/OR NO OBSTRUCTIONS TO VISIBILITY.

NYZ032-033-038>043-046>054-057>066-NYZ062>081-082-084-020200-
EAST


CITY           SKY/WX    TMP DP  RH WIND       PRES   REMARKS
ALBANY         CLOUDY    45  38  76 SE6       30.09S
GLENS FALLS    CLOUDY    46  40  79 S3        30.07F
POUGHKEEPSIE   CLOUDY    45  41  86 E6        30.10F
NEWBURGH       CLOUDY    45  45 100 SE8       30.09F
MONTGOMERY     CLOUDY    46  44  93 SE5       30.09S FOG
WHITE PLAINS   DRIZZLE   42  40  92 E6        30.11R FOG
ISLIP          DRIZZLE   43  41  93 NE7       30.11S FOG
NEW YORK CITY  LGT RAIN  46  42  86 NE10      30.12R FOG
CENTRAL PARK   CLOUDY    45  42  89 E9        30.13S
$$

NYZ005>009-017-018-044>046-055-056-020200-
CENTRAL


CITY           SKY/WX    TMP DP  RH WIND       PRES   REMARKS
FULTON         LGT RAIN  49  46  90 VRB5      29.97R FOG
SYRACUSE       CLOUDY    47  45  93 E7        29.98R
ROME           CLOUDY    44  44 100 E8        30.02S
ELMIRA         CLOUDY    52  45  77 S9        30.00R
BINGHAMTON     CLOUDY    45  43  93 S7        30.01R
MONTICELLO     CLOUDY    43  43 100 SE6       30.09R
$$

NYZ026>034-041>043-087-020200-
NORTH


CITY           SKY/WX    TMP DP  RH WIND       PRES   REMARKS
WATERTOWN      CLOUDY    46  45  96 NE7       30.01R
FORT DRUM      NOT AVBL
MASSENA        LGT RAIN  46  44  93 NE7       30.06F FOG
SARANAC LAKE   LGT RAIN  41  38  89 S3        30.02R FOG
PLATTSBURGH    LGT RAIN  45  43  93 S7        30.07F
$$

NYZ001>004-010>016-019>021-085-020200-
WEST


CITY           SKY/WX    TMP DP  RH WIND       PRES   REMARKS
NIAGARA FALLS  CLOUDY    46  42  86 NE9       30.01R FOG
BUFFALO        CLOUDY    45  43  93 N10       30.01R
DUNKIRK        CLOUDY    45  44  97 N5        30.01R FOG
JAMESTOWN      CLOUDY    46  45  93 NW6       29.97S VSB 3/4
WELLSVILLE     CLOUDY    53  51  93 S5        29.98S
ROCHESTER      FOG       45  45 100 N8        29.99R VSB 1
PENN YAN       CLOUDY    53  50  89 S9        29.97R
$$

             KEY
       WCI = WIND CHILL INDEX
       VSB = VISIBILITY
       HX  = HEAT INDEX
$$




USA.gov is the U.S. government's official web portal to all federal, state and local government web resources and services.